Location: Carbonear
(47.7333°N, 53.2500°W)
Time: 06:55:27
(UTC+00:00)

Oscar 11 - Pass Details

Date: 09 December 2022
Orbit: 611 x 621 km, 97.6° (Epoch: 28 January)

Event Time Altitude Azimuth Distance (km) Brightness Sun altitude
Rises 09:33:38 0° 359° (N) 2,889 10.3 -15.3°
Reaches altitude 10° 09:36:21 10° 342° (NNW) 1,979 9.3 -14.9°
Enters shadow 09:36:33 11° 340° (NNW) 1,924 9.2 -14.9°
